Location: Dehesa de la Cepeda
(40.6574°N, 4.3013°W)
Time: 20:28:14
(UTC+00:00)

Vanguard 3 - Pass Details

Date: 06 August 2021
Orbit: 510 x 3260 km, 33.3° (Epoch: 22 September)

Event Time Altitude Azimuth Distance (km) Brightness Sun altitude
Rises 00:05:03 0° 280° (W) 7,050 12.1 -32.5°
Reaches altitude 10° 00:11:14 10° 268° (W) 6,172 11.6 -32.6°
Enters shadow 00:23:47 23° 229° (SW) 5,041 10.8 -32.7°
